Home > Weather > Ho Chi Minh > Past weeks

Flag for Vietnam Weather for the Past 2 Weeks in Ho Chi Minh, Vietnam

Now
90 °F

Scattered clouds.


Feels Like: 98 °F
Forecast: 82 / 96 °F
Wind: 6 mph from North

Location: Ho Chi Minh

Current Time: May 1, 2016 at 10:00:49 AM

Latest Report: May 1, 2016 at 9:00 AM


Visibility: N/A

Pressure: 29.86 "Hg

Humidity: 59%

Dew Point: 73 °F

Location of Ho Chi MinhLocation

Historic Weather in Ho Chi Minh — Graph

°F

Ho Chi Minh Temperature Yesterday

Maximum temperature yesterday: 97 °F (at 12:30 PM)
Minimum temperature yesterday: 81 °F (at 12:30 AM)
Average temperature yesterday: 88 °F

High & Low Weather Summary for the Past Weeks

 TemperatureHumidityPressure
High100 °F (Apr 20, 12:00 PM)84% (Apr 24, 5:30 AM)29.89 "Hg (Apr 24, 5:30 AM)
Low79 °F (Apr 27, 8:00 PM)29% (Apr 26, 2:30 PM)29.65 "Hg (Apr 27, 3:30 PM)
Average88 °F60%29.79 "Hg
* Reported Apr 16 8:00 AM — May 1 8:30 AM, Ho Chi Minh, Weather by CustomWeather, © 2016

Note: Actual official high and low records may vary slightly from our data, if they occured in-between our weather recording intervals... More about our weather records

Advertising

Ho Chi Minh Weather History for the Previous 24 Hours

Scroll right to see more
 ConditionsComfort  
Time TempWeatherWind HumidityBarometerVisibility
8:30 AM
Sun, May 1
90 °FScattered clouds.5 mph59%29.83 "HgN/A
8:00 AM88 °FScattered clouds.6 mph62%29.83 "HgN/A
7:30 AM88 °FScattered clouds.5 mph66%29.83 "HgN/A
7:00 AM86 °FScattered clouds.5 mph70%29.83 "HgN/A
6:30 AM84 °FPartly sunny.2 mph74%29.80 "HgN/A
6:00 AM84 °FPartly sunny.1 mph70%29.80 "HgN/A
5:30 AM84 °FPassing clouds.No wind70%29.80 "HgN/A
5:00 AM84 °FPassing clouds.2 mph70%29.77 "HgN/A
4:30 AM84 °FPassing clouds.1 mph70%29.77 "HgN/A
4:00 AM84 °FPassing clouds.1 mph70%29.77 "HgN/A
3:30 AM84 °FPassing clouds.5 mph70%29.77 "HgN/A
3:00 AM84 °FPassing clouds.6 mph70%29.77 "HgN/A
2:30 AM84 °FPassing clouds.7 mph70%29.77 "HgN/A
2:00 AM84 °FPassing clouds.6 mph70%29.77 "HgN/A
1:30 AM86 °FPassing clouds.6 mph66%29.80 "HgN/A
1:00 AM86 °FPassing clouds.6 mph66%29.80 "HgN/A
12:30 AM86 °FPassing clouds.5 mph66%29.80 "HgN/A
12:00 AM86 °FPassing clouds.6 mph66%29.83 "HgN/A
11:30 PM
Sat, Apr 30
86 °FPassing clouds.6 mph66%29.83 "HgN/A
11:00 PM84 °FPassing clouds.2 mph70%29.83 "HgN/A
10:30 PM86 °FPassing clouds.2 mph66%29.83 "HgN/A
10:00 PM86 °FPassing clouds.2 mph62%29.83 "HgN/A
9:30 PM86 °FPassing clouds.6 mph66%29.80 "HgN/A
9:00 PM86 °FPassing clouds.6 mph66%29.80 "HgN/A
8:30 PM86 °FPassing clouds.8 mph62%29.80 "HgN/A
8:00 PM88 °FPassing clouds.9 mph59%29.80 "HgN/A
7:30 PM88 °FPassing clouds.6 mph55%29.77 "HgN/A
7:00 PM88 °FPassing clouds.7 mph52%29.77 "HgN/A
6:30 PM90 °FPassing clouds.9 mph52%29.77 "HgN/A
6:00 PM90 °FPassing clouds.10 mph46%29.74 "HgN/A
5:30 PM91 °FPassing clouds.9 mph44%29.74 "HgN/A
5:00 PM93 °FPassing clouds.10 mph44%29.71 "HgN/A
4:30 PM95 °FPassing clouds.8 mph44%29.71 "HgN/A
4:00 PM95 °FScattered clouds.9 mph44%29.71 "HgN/A
3:30 PM97 °FScattered clouds.9 mph42%29.71 "HgN/A
3:00 PM97 °FScattered clouds.8 mph42%29.71 "HgN/A
2:30 PM97 °FScattered clouds.8 mph39%29.71 "HgN/A
2:00 PM97 °FScattered clouds.8 mph37%29.71 "HgN/A
1:30 PM97 °FScattered clouds.5 mph34%29.74 "HgN/A
1:00 PM97 °FScattered clouds.5 mph37%29.77 "HgN/A
12:30 PM97 °FScattered clouds.5 mph37%29.80 "HgN/A
12:00 PM95 °FScattered clouds.6 mph41%29.80 "HgN/A
11:30 AM95 °FScattered clouds.7 mph41%29.83 "HgN/A
11:00 AM93 °FScattered clouds.3 mph44%29.83 "HgN/A
10:00 AM93 °FPassing clouds.6 mph44%29.86 "HgN/A
Weather by CustomWeather, © 2016

See weather overviewHow to use our weather pages